Wind_Speed
7 7 8 8 8 9 9 10 10 10 11 12 13 13 14 16 17 19 20 19 20 22 22 22 21 21 20 19 18 18 17 16 15 14 12 11 10 9 9 8 8 8 7 6
8 8 8 8 8 9 9 10 10 10 12 12 13 13 13 14 15 18 19 20 20 21 22 21 20 20 19 20 19 19 18 17 16 15 14 13 12 11 10 9 9 9 9 9
10 9 8 8 8 9 10 11 11 10 11 13 13 13 13 13 14 17 19 19 19 20 20 21 20 19 19 20 19 19 18 18 17 16 15 15 14 13 12 11 11 10 10 10
12 11 10 7 8 9 10 11 11 11 12 13 13 13 13 13 14 16 17 18 19 19 20 21 21 20 20 20 20 19 18 19 18 17 17 16 15 15 14 13 13 12 12 12
13 12 10 9 9 9 10 10 12 12 12 12 13 13 13 13 14 15 16 17 18 19 20 20 20 20 19 19 19 19 18 19 19 19 18 18 17 17 16 16 15 15 14 14
14 13 10 9 10 10 10 9 10 11 12 11 11 11 12 13 13 14 16 16 18 18 19 20 20 20 20 19 19 19 20 20 19 19 19 18 18 18 18 18 18 17 16 16
15 14 11 11 11 11 10 10 11 11 12 12 11 12 12 13 13 14 15 16 17 18 19 19 19 20 20 20 20 20 21 20 20 20 20 19 19 19 18 19 19 19 18 18
16 14 12 12 12 11 11 11 12 12 12 13 13 13 13 14 14 15 15 16 17 18 19 19 20 20 21 21 22 22 21 21 20 21 20 20 20 20 20 19 20 20 20 20
17 15 13 14 13 13 13 12 13 13 13 13 13 13 13 14 14 15 16 17 17 18 18 19 19 20 20 21 22 22 21 21 21 21 21 21 20 20 20 20 21 21 21 21
18 16 16 15 15 14 14 13 14 15 14 14 14 14 13 13 14 15 16 16 17 17 18 19 19 20 21 21 21 21 22 22 22 22 22 22 22 22 22 22 22 22 23 23
19 18 18 17 16 16 15 15 15 15 15 15 15 15 15 15 15 16 17 17 17 18 19 20 20 21 21 22 22 22 22 23 23 23 23 23 23 24 24 24 25 25 25 25
20 19 19 19 18 18 17 17 17 16 16 16 15 16 16 16 16 17 17 18 19 20 20 21 22 22 22 23 23 24 24 24 24 25 25 26 26 26 26 27 27 27 27 28
23 23 22 21 21 20 19 19 19 18 18 18 17 17 18 18 18 18 18 19 19 20 21 22 23 23 24 24 25 25 25 25 26 27 27 28 29 29 29 30 30 30 30 31
25 25 24 24 23 22 22 22 21 20 20 20 20 19 20 20 20 20 20 21 21 21 21 22 23 24 25 25 26 26 27 27 28 28 29 30 30 31 31 32 32 32 33 33
28 27 26 26 25 24 23 23 23 22 22 22 22 22 22 22 22 22 23 23 23 23 23 24 25 26 26 27 28 28 29 29 30 31 31 31 32 32 33 33 34 34 35 36
30 29 28 27 27 25 24 24 24 24 23 23 23 23 23 24 24 24 24 24 25 25 26 26 27 28 28 29 29 30 31 31 31 32 32 33 34 34 35 35 36 36 37 38
32 31 30 29 28 27 27 26 26 26 26 25 25 25 25 25 26 26 26 26 26 27 27 28 28 29 30 31 31 32 32 33 33 34 34 34 35 36 37 38 38 39 40 41
34 33 32 31 31 30 29 28 28 28 28 27 27 26 26 26 27 28 28 28 28 29 29 30 30 31 31 32 33 33 34 34 35 36 36 37 37 38 39 40 40 41 42 42
35 34 33 33 32 31 30 30 29 30 29 29 29 28 28 28 29 29 29 30 30 31 31 32 33 33 34 34 35 35 35 35 36 37 38 39 40 40 41 41 42 43 44 44
35 35 34 35 34 33 32 32 31 30 30 30 30 30 31 31 31 31 32 32 32 33 33 34 35 36 36 36 36 37 37 37 38 39 40 41 41 42 43 43 44 45 46 46
36 35 35 35 35 35 34 34 33 33 32 33 33 33 33 33 34 34 34 35 35 36 36 37 37 38 38 38 39 39 40 40 41 41 42 43 43 44 45 45 46 47 48 49
36 36 36 35 35 35 34 34 34 34 34 34 34 35 35 35 35 36 36 37 37 37 38 38 39 39 40 41 41 42 43 43 44 44 45 45 46 47 47 48 49 50 50 51
38 37 37 36 36 35 35 35 35 35 35 35 35 36 36 36 36 37 37 37 38 38 39 39 40 40 41 41 42 43 44 45 46 46 47 47 48 49 50 51 51 52 53 53
39 38 38 38 37 37 37 37 37 37 37 37 37 37 37 37 37 38 38 38 38 39 39 40 40 41 42 42 43 43 45 46 47 47 48 49 50 50 51 52 53 54 55 56
38 38 38 39 38 38 38 38 39 39 38 38 38 38 38 38 38 38 39 39 39 40 40 41 42 42 43 43 44 44 45 46 47 48 49 50 51 52 53 54 54 55 56 57
38 38 39 39 39 39 40 40 40 39 39 39 39 39 38 38 39 39 39 40 40 41 41 42 43 43 44 45 45 45 46 47 48 49 50 51 52 53 53 54 55 55 56 57
38 38 38 38 38 38 38 38 38 38 38 38 38 38 39 39 39 39 39 40 40 41 41 42 43 43 44 45 45 46 46 47 47 48 49 50 51 52 52 53 54 54 55 56
Wind_Direction
246 248 242 235 235 227 222 215 212 209 211 211 212 212 214 216 217 217 216 218 217 215 215 216 215 213 214 214 216 215 215 216 217 219 220 224 230 234 237 241 245 250 256 263
243 246 241 238 234 226 216 214 212 211 211 213 215 215 215 216 217 219 220 221 220 218 219 217 215 214 214 215 216 217 217 219 221 223 225 228 232 236 240 244 249 254 257 261
241 241 239 237 234 226 220 214 216 216 214 215 215 215 217 219 221 221 220 221 222 221 221 218 215 214 214 215 216 217 219 222 224 226 229 233 236 239 242 246 252 258 261 264
243 245 244 237 235 229 223 222 219 217 217 218 217 215 217 218 218 218 219 219 219 219 220 218 217 216 217 218 220 221 223 225 226 229 233 237 239 242 246 249 252 256 261 266
242 245 245 236 234 230 225 222 222 222 220 221 218 217 219 218 216 216 215 217 218 219 218 218 217 218 220 222 224 227 229 231 230 232 236 240 242 246 249 251 253 256 260 265
239 242 241 232 231 228 225 220 220 218 217 219 219 220 219 217 216 215 217 219 219 218 219 220 220 221 224 226 229 231 233 235 236 236 238 241 244 248 250 252 255 257 260 263
241 240 233 230 229 226 224 219 219 219 219 222 225 226 226 221 216 219 221 223 221 219 221 223 224 226 227 229 232 235 237 239 241 241 241 243 246 249 254 255 256 257 261 264
239 239 231 231 228 226 223 222 221 222 223 225 226 227 229 225 223 224 225 225 223 222 224 225 227 228 229 231 234 237 240 242 244 244 244 246 249 252 254 256 259 261 262 264
236 235 233 230 229 229 227 227 227 226 226 228 230 230 232 229 228 227 228 228 225 226 228 229 231 231 232 235 237 239 240 243 244 245 246 249 251 253 255 257 260 262 264 267
232 232 233 233 233 229 231 232 231 230 230 232 234 236 236 235 235 233 233 232 231 232 232 233 235 234 235 237 239 240 242 244 245 247 249 251 253 255 257 259 261 263 266 268
231 231 232 232 232 231 232 233 234 233 234 236 237 239 241 242 240 237 236 236 236 236 236 236 237 238 238 240 242 244 246 247 248 250 252 253 255 257 258 260 263 266 267 270
230 229 231 232 233 233 235 237 238 238 239 239 240 241 241 242 241 239 239 239 238 239 240 240 241 242 242 243 245 247 248 249 251 252 254 256 257 259 260 263 266 267 269 271
231 231 232 232 233 235 238 239 240 240 241 243 243 244 244 244 243 242 243 243 243 244 245 246 247 247 247 247 248 249 250 252 254 255 257 258 260 261 263 265 268 270 271 272
231 232 233 234 234 236 240 242 243 244 245 246 246 246 246 246 247 248 248 249 248 249 251 251 251 251 251 251 252 252 253 255 256 258 259 261 262 263 265 267 269 270 271 272
231 232 234 235 236 237 240 243 244 246 248 248 248 249 248 249 250 251 252 252 253 254 254 254 254 255 255 255 255 256 257 258 258 259 260 262 264 266 268 269 270 272 273 274
232 233 235 236 237 238 241 244 245 246 249 250 251 253 253 253 253 253 253 254 255 256 257 257 257 258 258 258 259 259 260 261 261 261 263 264 266 267 269 271 272 273 274 275
233 234 236 237 239 240 242 244 246 249 251 252 253 255 256 256 257 257 256 257 258 259 259 259 261 261 262 262 262 262 262 263 264 265 266 267 268 269 270 272 273 275 275 276
234 235 238 239 240 242 244 246 250 252 253 254 255 257 258 259 259 259 259 260 261 262 262 262 263 263 264 263 263 263 264 264 265 267 268 269 270 271 272 273 274 276 277 277
235 236 238 239 240 243 245 249 252 254 255 256 257 258 259 261 262 262 262 263 264 264 264 265 265 265 266 266 265 265 265 265 266 267 268 270 271 272 273 274 275 276 277 279
234 236 239 240 242 244 247 249 252 254 256 257 258 259 261 262 263 264 264 265 266 266 266 266 266 267 267 267 267 267 267 267 268 269 270 271 272 273 274 275 276 277 278 279
236 238 240 242 243 244 246 249 251 254 256 257 258 260 262 263 264 266 267 267 268 268 268 267 267 268 268 268 268 269 269 269 270 271 272 272 273 274 275 275 276 277 278 279
236 239 241 243 245 246 248 250 253 255 257 258 260 262 263 264 265 267 268 269 269 269 269 269 269 269 269 269 269 269 269 270 271 272 272 273 274 274 275 276 277 278 279 280
238 240 242 244 246 248 250 252 254 257 258 260 262 263 264 266 267 268 269 269 270 270 270 270 270 270 270 270 270 270 270 271 272 272 273 274 274 275 276 277 278 279 280 281
238 241 243 245 247 249 251 253 256 258 260 262 263 264 266 266 267 268 269 270 270 270 270 270 270 271 271 271 272 272 272 272 273 273 274 275 276 277 278 278 279 280 281 282
239 241 243 245 248 250 253 255 257 259 260 262 263 265 266 267 267 268 269 270 271 271 271 272 272 272 272 273 273 274 274 274 274 275 276 277 278 279 279 280 280 281 282 282
240 242 243 246 248 250 253 255 256 259 261 262 263 264 265 266 268 269 270 270 271 271 272 273 273 274 274 275 275 276 277 277 277 278 278 279 280 281 281 282 282 282 283 283
242 244 245 247 249 250 252 255 257 258 260 261 262 263 265 266 267 269 270 271 272 272 273 274 275 276 276 277 277 278 279 279 280 280 280 281 282 282 283 283 284 285 285 286
Height
5802 5802 5803 5804 5805 5805 5807 5808 5810 5812 5813 5815 5817 5819 5822 5824 5827 5830 5833 5835 5838 5841 5844 5847 5850 5853 5856 5859 5861 5864 5866 5868 5871 5872 5874 5875 5876 5877 5878 5879 5879 5879 5880 5879
5800 5800 5801 5802 5803 5804 5805 5807 5808 5809 5811 5813 5815 5818 5820 5822 5825 5828 5830 5833 5835 5838 5841 5844 5847 5850 5853 5856 5858 5861 5863 5866 5868 5870 5872 5873 5874 5875 5876 5877 5877 5877 5878 5878
5798 5798 5799 5801 5801 5802 5804 5805 5807 5808 5811 5811 5813 5815 5818 5820 5822 5824 5827 5829 5832 5835 5838 5841 5844 5846 5849 5852 5855 5858 5860 5862 5865 5867 5869 5870 5871 5872 5873 5874 5875 5875 5875 5875
5796 5797 5798 5801 5800 5800 5802 5803 5805 5806 5808 5809 5812 5814 5816 5817 5819 5822 5824 5827 5829 5832 5835 5838 5841 5843 5846 5849 5852 5854 5857 5859 5861 5863 5865 5867 5868 5869 5870 5871 5872 5872 5872 5872
5793 5794 5796 5797 5798 5798 5800 5801 5803 5804 5806 5807 5809 5812 5814 5815 5817 5819 5821 5824 5827 5829 5832 5835 5838 5841 5843 5846 5849 5851 5853 5855 5857 5859 5861 5863 5865 5866 5867 5868 5868 5869 5869 5869
5790 5791 5793 5796 5796 5796 5799 5800 5801 5802 5804 5806 5808 5810 5812 5813 5815 5817 5819 5821 5824 5826 5829 5832 5834 5837 5840 5843 5845 5847 5849 5851 5853 5855 5857 5859 5860 5861 5863 5863 5864 5865 5865 5865
5787 5788 5791 5793 5793 5795 5798 5799 5799 5800 5802 5804 5806 5808 5810 5811 5813 5815 5817 5819 5821 5824 5826 5829 5832 5834 5837 5839 5841 5843 5845 5847 5849 5851 5852 5854 5855 5857 5858 5859 5859 5860 5860 5861
5783 5785 5790 5789 5791 5793 5795 5795 5797 5798 5800 5802 5803 5805 5806 5808 5810 5812 5814 5816 5818 5821 5823 5826 5828 5830 5833 5835 5837 5839 5841 5843 5844 5846 5847 5849 5851 5852 5853 5854 5854 5855 5855 5855
5781 5784 5785 5786 5788 5790 5791 5793 5794 5796 5797 5799 5801 5802 5804 5805 5807 5809 5811 5813 5815 5817 5820 5822 5824 5826 5828 5830 5832 5834 5836 5838 5840 5841 5843 5844 5845 5847 5848 5848 5849 5849 5850 5850
5776 5779 5781 5782 5784 5786 5788 5790 5791 5793 5795 5796 5798 5799 5801 5803 5804 5806 5808 5809 5812 5814 5816 5818 5820 5822 5824 5826 5828 5830 5831 5833 5835 5836 5838 5839 5840 5841 5842 5843 5843 5843 5844 5844
5771 5774 5776 5778 5781 5783 5785 5786 5788 5790 5791 5793 5794 5796 5797 5799 5801 5802 5804 5806 5808 5810 5812 5813 5815 5817 5819 5821 5823 5825 5826 5828 5829 5831 5832 5833 5834 5835 5836 5837 5837 5837 5837 5837
5767 5770 5772 5775 5777 5779 5781 5782 5784 5786 5787 5789 5790 5792 5793 5795 5797 5798 5800 5802 5804 5806 5807 5809 5811 5812 5814 5816 5817 5819 5821 5822 5824 5825 5826 5827 5828 5828 5829 5830 5830 5830 5830 5830
5761 5764 5767 5769 5772 5774 5776 5778 5780 5781 5783 5785 5786 5788 5789 5791 5792 5794 5795 5797 5799 5800 5802 5804 5805 5807 5808 5810 5811 5813 5814 5816 5817 5818 5819 5820 5821 5821 5822 5822 5822 5822 5822 5821
5754 5758 5760 5763 5766 5768 5771 5773 5774 5776 5778 5780 5781 5783 5784 5786 5787 5789 5790 5792 5793 5795 5796 5798 5799 5800 5802 5803 5805 5806 5807 5809 5810 5811 5812 5812 5813 5813 5813 5814 5814 5813 5813 5813
5748 5751 5754 5757 5759 5762 5764 5766 5768 5770 5772 5774 5776 5777 5779 5780 5782 5783 5784 5786 5787 5788 5790 5791 5793 5794 5795 5796 5797 5798 5800 5801 5802 5803 5803 5804 5804 5804 5805 5805 5805 5804 5804 5803
5740 5744 5747 5750 5753 5756 5758 5760 5762 5764 5766 5768 5770 5771 5773 5774 5776 5777 5778 5779 5781 5782 5783 5784 5785 5786 5787 5788 5789 5790 5791 5792 5793 5794 5794 5795 5795 5795 5795 5795 5794 5794 5794 5792
5733 5736 5740 5743 5746 5748 5751 5753 5755 5758 5759 5761 5763 5764 5766 5767 5768 5769 5771 5772 5773 5775 5776 5777 5777 5778 5779 5780 5781 5782 5782 5783 5784 5784 5785 5785 5785 5785 5785 5784 5784 5783 5782 5781
5724 5728 5732 5735 5738 5741 5743 5746 5748 5750 5752 5754 5755 5757 5758 5759 5760 5762 5763 5764 5765 5766 5767 5768 5769 5770 5770 5771 5771 5772 5773 5773 5774 5774 5774 5774 5774 5774 5774 5773 5772 5772 5770 5769
5715 5719 5722 5726 5729 5732 5735 5737 5739 5741 5743 5745 5747 5749 5750 5751 5752 5753 5755 5756 5756 5757 5758 5759 5759 5760 5760 5761 5761 5762 5762 5762 5763 5763 5763 5763 5762 5762 5761 5761 5760 5759 5757 5756
5707 5710 5714 5717 5720 5723 5726 5729 5731 5733 5735 5736 5738 5740 5741 5742 5743 5744 5745 5746 5747 5747 5748 5748 5749 5749 5749 5750 5750 5750 5751 5751 5751 5751 5750 5750 5750 5749 5748 5748 5746 5745 5744 5742
5698 5702 5705 5708 5711 5714 5717 5719 5722 5723 5725 5727 5729 5730 5731 5733 5734 5734 5735 5736 5737 5737 5737 5737 5738 5738 5738 5738 5738 5738 5739 5739 5738 5738 5738 5737 5736 5736 5735 5734 5732 5731 5729 5727
5689 5693 5696 5699 5702 5705 5708 5710 5712 5714 5716 5717 5719 5720 5721 5722 5723 5724 5724 5725 5725 5725 5726 5726 5726 5726 5726 5726 5726 5726 5726 5726 5725 5725 5724 5723 5722 5722 5720 5719 5717 5716 5714 5712
5679 5683 5687 5690 5693 5695 5698 5700 5702 5704 5706 5707 5708 5710 5711 5711 5712 5713 5713 5714 5714 5714 5714 5714 5713 5713 5713 5713 5713 5712 5712 5711 5711 5710 5709 5708 5707 5706 5705 5703 5701 5699 5697 5695
5670 5673 5677 5680 5683 5685 5688 5690 5692 5694 5695 5697 5698 5699 5700 5700 5701 5701 5702 5702 5702 5702 5702 5701 5701 5700 5700 5700 5699 5699 5698 5697 5696 5695 5694 5693 5691 5690 5688 5686 5684 5682 5680 5677
5660 5663 5667 5670 5672 5675 5677 5679 5681 5683 5684 5686 5687 5687 5688 5689 5689 5690 5689 5689 5689 5689 5689 5689 5688 5688 5687 5686 5685 5684 5683 5682 5681 5680 5678 5677 5675 5673 5671 5669 5667 5664 5662 5659
5649 5653 5656 5659 5662 5664 5666 5668 5670 5672 5673 5674 5675 5676 5677 5677 5677 5677 5677 5677 5677 5676 5676 5675 5675 5674 5673 5672 5671 5670 5669 5667 5666 5664 5662 5661 5659 5657 5654 5652 5649 5646 5643 5640
5639 5642 5645 5648 5651 5653 5655 5657 5658 5660 5661 5663 5663 5664 5664 5665 5665 5665 5665 5664 5664 5663 5663 5662 5661 5660 5659 5658 5656 5655 5654 5652 5650 5648 5646 5644 5642 5640 5637 5634 5632 5629 5625 5622